Terminal Aerodrome Forecast
Issued by NWS Twin Cities, MN

Home | Current Version | Previous Version | Graphics & Text | Print | Product List | Glossary On
Versions: 1 2 3 4 5 6 7 8 9 10 11 12 13 14 15 16 17 18 19 20 21 22 23 24 25 26 27
000
FTUS43 KMPX 301458 AAA
TAFMSP
TAF AMD
KMSP 301458Z 3015/0118 02007KT 6SM HZ BKN020 BKN250
     FM301730 02007KT P6SM SCT040 SCT250
     FM010000 05008KT P6SM BKN250
     FM011000 08005KT P6SM BKN150=

USA.gov is the U.S. government's official web portal to all federal, state and local government web resources and services.